• In Deutschland
  • Länderverzeichnis
  • Für 7 Tage
  • Wassertemperatur
  • Satellitenkarten
  • Wetterkarte
  • Widgets
  • user-avatar
    Anmelden

    Stündliche Wetter Linz

    Heute, 26 Juni, Montag

    Zeit Temperatur Niederschläge Wind Luftdruck Luftfeuchtigkeit
    00:00 +16°C° 0,1 mm 2 m/S 733 mmHg 94%
    01:00 +16°C° 0 mm 2 m/S 733 mmHg 94%
    02:00 +16°C° 0,2 mm 2 m/S 733 mmHg 94%
    03:00 +16°C° 0,2 mm 2 m/S 733 mmHg 94%
    04:00 +15°C° 0,2 mm 2 m/S 733 mmHg 94%
    05:00 +17°C° 0 mm 2 m/S 733 mmHg 91%
    06:00 +18°C° 0 mm 2 m/S 733 mmHg 88%
    07:00 +20°C° 0 mm 2 m/S 733 mmHg 85%
    08:00 +23°C° 0,1 mm 2 m/S 733 mmHg 77%
    09:00 +24°C° 0,1 mm 3 m/S 732 mmHg 70%
    10:00 +25°C° 0,1 mm 4 m/S 732 mmHg 62%
    11:00 +26°C° 0 mm 3 m/S 732 mmHg 60%
    12:00 +27°C° 0 mm 3 m/S 732 mmHg 57%
    13:00 +28°C° 0 mm 3 m/S 732 mmHg 55%
    14:00 +28°C° 0 mm 3 m/S 732 mmHg 56%
    15:00 +28°C° 0 mm 2 m/S 731 mmHg 57%
    16:00 +28°C° 0 mm 2 m/S 731 mmHg 58%
    17:00 +27°C° 0 mm 2 m/S 731 mmHg 66%
    18:00 +26°C° 0 mm 1 m/S 731 mmHg 74%
    19:00 +25°C° 0 mm 1 m/S 731 mmHg 82%
    20:00 +23°C° 0 mm 1 m/S 731 mmHg 85%
    21:00 +20°C° 0 mm 1 m/S 731 mmHg 88%
    22:00 +18°C° 0 mm 1 m/S 731 mmHg 91%
    23:00 +18°C° 0 mm 1 m/S 731 mmHg 91%

    Morgen, 27 Juni, Dienstag

    Zeit Temperatur Niederschläge Wind Luftdruck Luftfeuchtigkeit
    00:00 +19°C° 0 mm 1 m/S 731 mmHg 91%
    01:00 +19°C° 0 mm 1 m/S 731 mmHg 90%
    02:00 +19°C° 0,1 mm 1 m/S 731 mmHg 90%
    03:00 +18°C° 0,1 mm 1 m/S 730 mmHg 91%
    04:00 +18°C° 0,1 mm 1 m/S 730 mmHg 91%
    05:00 +20°C° 0,1 mm 1 m/S 730 mmHg 87%
    06:00 +21°C° 0,1 mm 1 m/S 730 mmHg 83%
    07:00 +23°C° 0,1 mm 1 m/S 730 mmHg 79%
    08:00 +24°C° 0,3 mm 1 m/S 730 mmHg 73%
    09:00 +26°C° 0,3 mm 1 m/S 730 mmHg 67%
    10:00 +28°C° 0,3 mm 1 m/S 730 mmHg 62%
    11:00 +28°C° 0,3 mm 1 m/S 730 mmHg 60%
    12:00 +29°C° 0,3 mm 1 m/S 729 mmHg 58%
    13:00 +29°C° 0,3 mm 1 m/S 729 mmHg 56%
    14:00 +29°C° 0,8 mm 1 m/S 729 mmHg 57%
    15:00 +29°C° 0,8 mm 1 m/S 728 mmHg 58%
    16:00 +27°C° 0,8 mm 0 m/S 728 mmHg 59%
    17:00 +26°C° 0,4 mm 0 m/S 728 mmHg 66%
    18:00 +27°C° 0,4 mm 1 m/S 728 mmHg 74%
    19:00 +26°C° 0,4 mm 1 m/S 727 mmHg 82%
    20:00 +24°C° 0 mm 1 m/S 727 mmHg 84%
    21:00 +21°C° 0 mm 1 m/S 727 mmHg 87%
    22:00 +19°C° 0 mm 1 m/S 727 mmHg 89%
    23:00 +19°C° 0 mm 1 m/S 727 mmHg 88%

    übermorgen, 28 Juni, Mittwoch

    Zeit Temperatur Niederschläge Wind Luftdruck Luftfeuchtigkeit
    00:00 +19°C° 0 mm 1 m/S 727 mmHg 87%
    01:00 +19°C° 0 mm 1 m/S 727 mmHg 86%
    02:00 +19°C° 0 mm 1 m/S 726 mmHg 86%
    03:00 +18°C° 0 mm 1 m/S 726 mmHg 87%
    04:00 +18°C° 0 mm 1 m/S 725 mmHg 87%
    05:00 +20°C° 0 mm 1 m/S 725 mmHg 83%
    06:00 +22°C° 0 mm 1 m/S 725 mmHg 79%
    07:00 +24°C° 0 mm 1 m/S 725 mmHg 74%
    08:00 +26°C° 0 mm 1 m/S 724 mmHg 68%
    09:00 +28°C° 0 mm 1 m/S 724 mmHg 62%
    10:00 +29°C° 0 mm 1 m/S 724 mmHg 55%
    11:00 +30°C° 0 mm 2 m/S 723 mmHg 53%
    12:00 +31°C° 0 mm 2 m/S 723 mmHg 50%
    13:00 +32°C° 0 mm 2 m/S 723 mmHg 47%
    14:00 +31°C° 0,6 mm 2 m/S 722 mmHg 54%
    15:00 +30°C° 0,6 mm 3 m/S 722 mmHg 60%
    16:00 +29°C° 0,6 mm 3 m/S 722 mmHg 66%
    17:00 +28°C° 0,4 mm 3 m/S 722 mmHg 73%
    18:00 +27°C° 0,4 mm 2 m/S 721 mmHg 80%
    19:00 +25°C° 0,4 mm 1 m/S 721 mmHg 87%
    20:00 +24°C° 0,9 mm 1 m/S 721 mmHg 89%
    21:00 +22°C° 0,9 mm 1 m/S 721 mmHg 91%
    22:00 +21°C° 0,9 mm 1 m/S 720 mmHg 93%
    23:00 +20°C° 0,1 mm 2 m/S 720 mmHg 93%

    29 Juni, Donnerstag

    Zeit Temperatur Niederschläge Wind Luftdruck Luftfeuchtigkeit
    00:00 +19°C° 0,1 mm 2 m/S 719 mmHg 93%
    01:00 +19°C° 0,1 mm 2 m/S 718 mmHg 94%
    02:00 +19°C° 0 mm 1 m/S 718 mmHg 94%
    03:00 +18°C° 0 mm 1 m/S 718 mmHg 94%
    04:00 +16°C° 0 mm 1 m/S 717 mmHg 94%
    05:00 +17°C° 0,3 mm 2 m/S 717 mmHg 92%
    06:00 +19°C° 0,3 mm 4 m/S 718 mmHg 90%
    07:00 +20°C° 0,3 mm 5 m/S 718 mmHg 88%
    08:00 +20°C° 0,3 mm 6 m/S 718 mmHg 83%
    09:00 +20°C° 0,3 mm 7 m/S 719 mmHg 79%
    10:00 +20°C° 0,3 mm 8 m/S 720 mmHg 74%
    11:00 +20°C° 0,3 mm 7 m/S 720 mmHg 75%
    12:00 +20°C° 0,3 mm 7 m/S 721 mmHg 76%
    13:00 +19°C° 0,3 mm 6 m/S 721 mmHg 77%
    14:00 +20°C° 0,2 mm 6 m/S 722 mmHg 78%
    15:00 +20°C° 0,2 mm 5 m/S 722 mmHg 79%
    16:00 +20°C° 0,2 mm 5 m/S 723 mmHg 80%
    17:00 +19°C° 0,2 mm 4 m/S 723 mmHg 83%
    18:00 +19°C° 0,2 mm 4 m/S 724 mmHg 86%
    19:00 +18°C° 0,2 mm 3 m/S 724 mmHg 89%
    20:00 +17°C° 0,2 mm 3 m/S 725 mmHg 90%
    21:00 +17°C° 0,2 mm 4 m/S 725 mmHg 90%
    22:00 +15°C° 0,2 mm 4 m/S 726 mmHg 90%
    23:00 +16°C° 0 mm 3 m/S 726 mmHg 90%

    30 Juni, Freitag

    Zeit Temperatur Niederschläge Wind Luftdruck Luftfeuchtigkeit
    00:00 +14°C° 0 mm 3 m/S 726 mmHg 90%
    01:00 +15°C° 0 mm 2 m/S 727 mmHg 90%
    02:00 +14°C° 0 mm 2 m/S 727 mmHg 90%
    03:00 +14°C° 0 mm 2 m/S 727 mmHg 89%
    04:00 +13°C° 0 mm 1 m/S 727 mmHg 89%
    05:00 +14°C° 0,1 mm 2 m/S 727 mmHg 88%
    06:00 +14°C° 0,1 mm 2 m/S 728 mmHg 87%
    07:00 +15°C° 0,1 mm 2 m/S 728 mmHg 85%
    08:00 +16°C° 0 mm 2 m/S 728 mmHg 78%
    09:00 +18°C° 0 mm 2 m/S 729 mmHg 70%
    10:00 +19°C° 0 mm 2 m/S 729 mmHg 63%
    11:00 +20°C° 0,1 mm 2 m/S 729 mmHg 59%
    12:00 +21°C° 0,1 mm 2 m/S 729 mmHg 56%
    13:00 +24°C° 0,1 mm 2 m/S 729 mmHg 52%
    14:00 +24°C° 0,1 mm 2 m/S 729 mmHg 53%
    15:00 +24°C° 0,1 mm 2 m/S 729 mmHg 54%
    16:00 +24°C° 0,1 mm 2 m/S 729 mmHg 54%
    17:00 +23°C° 0 mm 2 m/S 729 mmHg 62%
    18:00 +21°C° 0 mm 1 m/S 729 mmHg 70%
    19:00 +20°C° 0 mm 1 m/S 729 mmHg 77%
    20:00 +18°C° 0,2 mm 1 m/S 729 mmHg 82%
    21:00 +15°C° 0,2 mm 1 m/S 729 mmHg 87%
    22:00 +13°C° 0,2 mm 1 m/S 730 mmHg 92%
    23:00 +12°C° 0,1 mm 1 m/S 730 mmHg 92%

    1 Juli, Samstag

    Zeit Temperatur Niederschläge Wind Luftdruck Luftfeuchtigkeit
    00:00 +12°C° 0,1 mm 1 m/S 730 mmHg 93%
    01:00 +11°C° 0,1 mm 1 m/S 730 mmHg 93%
    02:00 +11°C° 0 mm 1 m/S 730 mmHg 94%
    03:00 +11°C° 0 mm 1 m/S 729 mmHg 94%
    04:00 +11°C° 0 mm 1 m/S 729 mmHg 94%
    05:00 +12°C° 0 mm 0 m/S 730 mmHg 89%
    06:00 +14°C° 0 mm 0 m/S 730 mmHg 84%
    07:00 +17°C° 0 mm 0 m/S 730 mmHg 79%
    08:00 +20°C° 0,1 mm 1 m/S 730 mmHg 73%
    09:00 +21°C° 0,1 mm 1 m/S 730 mmHg 66%
    10:00 +23°C° 0,1 mm 1 m/S 730 mmHg 60%
    11:00 +23°C° 0,2 mm 1 m/S 730 mmHg 58%
    12:00 +24°C° 0,2 mm 1 m/S 730 mmHg 56%
    13:00 +25°C° 0,2 mm 1 m/S 729 mmHg 53%
    14:00 +25°C° 0,2 mm 1 m/S 729 mmHg 55%
    15:00 +25°C° 0,2 mm 2 m/S 729 mmHg 56%
    16:00 +25°C° 0,2 mm 2 m/S 729 mmHg 58%
    17:00 +23°C° 0,4 mm 2 m/S 730 mmHg 66%
    18:00 +21°C° 0,4 mm 2 m/S 730 mmHg 74%
    19:00 +20°C° 0,4 mm 2 m/S 731 mmHg 82%
    20:00 +18°C° 0,4 mm 2 m/S 731 mmHg 85%
    21:00 +17°C° 0,4 mm 2 m/S 731 mmHg 88%
    22:00 +15°C° 0,4 mm 2 m/S 732 mmHg 91%
    23:00 +15°C° 0,2 mm 2 m/S 732 mmHg 93%
    Mehr zeigen